Weather History for Kendall, FL

Change the Weather History Date:

Monday, April 1, 2013

  Actual Average Record
Temperature  
Mean Temperature 75 °F -  
Max Temperature 84 °F 86 °F 91 °F (1991)
Min Temperature 66 °F 64 °F 50 °F (2003)
Cooling Degree Days 10    
Growing Degree Days 25 (Base 50)    
Moisture  
Dew Point 67 °F    
Average Humidity 78    
Maximum Humidity 93    
Minimum Humidity 56    
Precipitation  
Precipitation 0.10 in - - ()
Sea Level Pressure  
Sea Level Pressure 30.03 in    
Wind  
Wind Speed 6 mph (South)    
Max Wind Speed 15 mph    
Max Gust Speed 21 mph    
Visibility 10 miles    
Events Rain    
Averages and records for this station are not official NWS values.
T = Trace of Precipitation, MM = Missing Value Source: NWS Daily Summary

Daily Weather History Graph

Daily Weather History Graph

Search for Another Location

Airport:

Trip Planner

Search our weather history database for the weather conditions in past years. The results will help you decide how hot, cold, wet, or windy it might be!

Date:

Astronomy

Apr. 01, 2013 Rise Set
Actual Time 7:12 AM EDT 7:38 PM EDT
Civil Twilight 6:49 AM EDT 8:01 PM EDT
Nautical Twilight 6:22 AM EDT 8:28 PM EDT
Astronomical Twilight 5:55 AM EDT 8:56 PM EDT
Moon 12:20 AM EDT (4/1) 11:23 AM EDT (4/1)
Length of Visible Light 13h 11m
Length of Day
12h 25m
Waning Gibbous, 67% of the Moon is Illuminated
Apr 1
Waning Gibbous
Apr 3
Last Quarter
Apr 10
New
Apr 18
First Quarter
Apr 25
Full

Hourly Weather History & Observations

Time (EDT) Temp. Heat Index Dew Point Humidity Pressure Visibility Wind Dir Wind Speed Gust Speed Precip Events Conditions
12:53 AM 72.0 °F - 66.9 °F 84% 30.07 in 10.0 mi SSE 4.6 mph - N/A   Scattered Clouds
1:53 AM 72.0 °F - 66.9 °F 84% 30.04 in 10.0 mi SSE 4.6 mph - N/A   Mostly Cloudy
2:53 AM 72.0 °F - 68.0 °F 87% 30.03 in 10.0 mi SSE 4.6 mph - N/A   Partly Cloudy
3:53 AM 72.0 °F - 68.0 °F 87% 30.02 in 10.0 mi SSE 4.6 mph - N/A   Scattered Clouds
4:53 AM 72.0 °F - 68.0 °F 87% 30.01 in 10.0 mi Calm Calm - N/A   Clear
5:26 AM 71.6 °F - 68.0 °F 88% 30.02 in 10.0 mi Calm Calm - N/A   Mostly Cloudy
5:53 AM 71.1 °F - 68.0 °F 90% 30.02 in 10.0 mi South 4.6 mph - N/A   Partly Cloudy
6:53 AM 69.1 °F - 66.9 °F 93% 30.03 in 10.0 mi SSE 3.5 mph - N/A   Clear
7:53 AM 70.0 °F - 68.0 °F 93% 30.04 in 10.0 mi SSE 5.8 mph - N/A   Clear
8:53 AM 73.9 °F - 69.1 °F 85% 30.07 in 10.0 mi South 5.8 mph - N/A   Clear
9:53 AM 79.0 °F - 68.0 °F 69% 30.07 in 10.0 mi South 11.5 mph - N/A   Partly Cloudy
10:53 AM 81.0 °F 83.8 °F 68.0 °F 65% 30.07 in 10.0 mi South 11.5 mph - N/A   Partly Cloudy
11:53 AM 84.0 °F 86.5 °F 66.9 °F 56% 30.06 in 10.0 mi SW 8.1 mph - N/A   Mostly Cloudy
12:53 PM 84.9 °F 88.2 °F 68.0 °F 57% 30.04 in 10.0 mi SSW 9.2 mph - N/A   Mostly Cloudy
1:18 PM 82.4 °F 84.6 °F 66.2 °F 58% 30.03 in 2.0 mi South 11.5 mph - N/A   Haze
1:28 PM 78.8 °F - 69.8 °F 74% 30.02 in 10.0 mi SSW 15.0 mph 20.7 mph 0.01 in Rain Light Rain
1:53 PM 77.0 °F - 64.0 °F 64% 30.04 in 10.0 mi South 13.8 mph 18.4 mph 0.01 in   Mostly Cloudy
2:53 PM 77.0 °F - 66.0 °F 69% 30.01 in 10.0 mi SE 10.4 mph - 0.00 in   Mostly Cloudy
3:53 PM 71.6 °F - 66.2 °F 83% 30.01 in 10.0 mi ESE 12.7 mph - N/A Rain Light Rain
4:53 PM 72.0 °F - 63.0 °F 73% 30.00 in 10.0 mi ESE 12.7 mph - 0.09 in   Partly Cloudy
5:53 PM 75.2 °F - 64.4 °F 69% 29.99 in 10.0 mi ESE 9.2 mph - N/A   Clear
6:53 PM 75.2 °F - 64.4 °F 69% 30.00 in 10.0 mi SSE 5.8 mph - N/A   Clear
7:53 PM 73.0 °F - 64.9 °F 76% 30.01 in 10.0 mi South 6.9 mph - N/A   Clear
8:53 PM 72.0 °F - 66.0 °F 81% 30.02 in 10.0 mi SSW 3.5 mph - N/A   Clear
9:53 PM 66.9 °F - 64.9 °F 93% 30.04 in 10.0 mi Calm Calm - N/A   Clear
10:53 PM 69.1 °F - 64.9 °F 87% 30.05 in 10.0 mi West 5.8 mph - N/A   Clear
11:53 PM 66.0 °F - 64.0 °F 93% 30.05 in 10.0 mi Calm Calm - N/A   Clear